Regional Weather Roundup
Issued by NWS Little Rock, AR

Home | Current Version | Previous Version | Graphics & Text | Print | Product List | Glossary On
Versions: 1 2 3 4 5 6 7 8 9 10 11 12 13 14 15 16 17 18 19 20 21 22 23 24 25 26 27 28 29 30 31 32 33 34 35 36 37 38 39 40 41 42 43 44 45 46 47 48 49 50
000
ASUS44 KLZK 201212
RWRLZK

WEATHER ROUNDUP FOR ARKANSAS
NATIONAL WEATHER SERVICE LITTLE ROCK AR
700 AM CDT FRI OCT 20 2017

NOTE: "FAIR" INDICATES FEW OR NO CLOUDS BELOW 12,000 FEET WITH NO
SIGNIFICANT WEATHER AND/OR OBSTRUCTIONS TO VISIBILITY.

ARZ001-003-010-029-201300-
NORTHWEST ARKANSAS

CITY           SKY/WX    TMP DP  RH WIND       PRES   REMARKS
FAYETTEVILLE   FAIR      49  49 100 CALM      30.16F
6HR MIN TEMP:  47; 6HR MAX TEMP:  59;

FORT SMITH     FAIR      56  54  93 E6        30.14F
6HR MIN TEMP:  54; 6HR MAX TEMP:  61;

HARRISON       FAIR      56  49  77 SE3       30.18F
6HR MIN TEMP:  53; 6HR MAX TEMP:  60;

BENTONVILLE    FAIR      53  49  86 SE7       30.18
6HR MIN TEMP:  51; 6HR MAX TEMP:  57;

ROGERS         FAIR      55  51  86 SE7       30.17F
6HR MIN TEMP:  52; 6HR MAX TEMP:  57;

SILOAM SPGS    FAIR      54  50  86 E5        30.16F
6HR MIN TEMP:  50; 6HR MAX TEMP:  59;

HIGHFILL       FAIR      52  50  93 CALM      30.16F
6HR MIN TEMP:  51; 6HR MAX TEMP:  56;

SPRINGDALE     CLEAR     55  52  88 SE3       30.18S
$$

ARZ004-005-016-201300-
NORTH CENTRAL ARKANSAS

CITY           SKY/WX    TMP DP  RH WIND       PRES   REMARKS
BATESVILLE     FAIR      51  49  92 E3        30.21S
6HR MIN TEMP:  50; 6HR MAX TEMP:  60;

FLIPPIN        FAIR      47  45  93 CALM      30.20R
6HR MIN TEMP:  47; 6HR MAX TEMP:  58;

MTN HOME       FAIR      54  50  86 S3        30.19R
6HR MIN TEMP:  51; 6HR MAX TEMP:  57;

$$

ARZ040-041-201300-
WEST CENTRAL ARKANSAS

CITY           SKY/WX    TMP DP  RH WIND       PRES   REMARKS
MENA           FAIR      52  52 100 CALM      30.18R
$$

ARZ009-017-025-026-028-201300-
NORTHEAST ARKANSAS

CITY           SKY/WX    TMP DP  RH WIND       PRES   REMARKS
JONESBORO      FOG       45  45 100 CALM      30.22S VSB 1/2
6HR MIN TEMP:  45; 6HR MAX TEMP:  51;

NEWPORT        FAIR      47  46  97 E5        30.21F
6HR MIN TEMP:  46; 6HR MAX TEMP:  56;

WALNUT RIDGE   FAIR      46  44  93 CALM      30.22S FOG
6HR MIN TEMP:  45; 6HR MAX TEMP:  53;

BLYTHEVILLE    FAIR      50  48  93 E6        30.24R
6HR MIN TEMP:  49; 6HR MAX TEMP:  57;

$$

ARZ022-023-033-042-044-201300-
CENTRAL ARKANSAS

CITY           SKY/WX    TMP DP  RH WIND       PRES   REMARKS
LITTLE ROCK    MOCLDY    51  51 100 CALM      30.21R
6HR MIN TEMP:  50; 6HR MAX TEMP:  53;

JACKSONVILLE   FAIR      47  46  96 CALM      30.20R
6HR MIN TEMP:  46; 6HR MAX TEMP:  52;

SEARCY         FAIR      48  48 100 MISG        N/A  FOG
6HR MIN TEMP:  47; 6HR MAX TEMP:  51;

HOT SPRINGS    FAIR      53  51  93 CALM      30.18S
6HR MIN TEMP:  49; 6HR MAX TEMP:  58;

RUSSELLVILLE   FAIR      49  49 100 CALM      30.18R
6HR MIN TEMP:  48; 6HR MAX TEMP:  55;

CLINTON        FAIR      43  43 100 CALM      30.22S FOG
$$

ARZ036-201300-
EAST ARKANSAS

CITY           SKY/WX    TMP DP  RH WIND       PRES   REMARKS
WEST MEMPHIS   FAIR      48  48 100 CALM      30.21S FOG
6HR MIN TEMP:  48; 6HR MAX TEMP:  55;

$$

ARZ050-053-066-070-073-201300-
SOUTHWEST ARKANSAS

CITY           SKY/WX    TMP DP  RH WIND       PRES   REMARKS
ARKADELPHIA    FAIR      51  50  96 NE3       30.19R
6HR MIN TEMP:  45; 6HR MAX TEMP:  51;

CAMDEN         MOCLDY    52  48  87 CALM      30.17R
TEXARKANA      FAIR      55  55 100 CALM      30.14S
6HR MIN TEMP:  55; 6HR MAX TEMP:  61;

EL DORADO      FAIR      56  56 100 CALM      30.17R
6HR MIN TEMP:  51; 6HR MAX TEMP:  56;

DE QUEEN       FAIR      56  56 100 CALM      30.13S
6HR MIN TEMP:  49; 6HR MAX TEMP:  56;

$$

ARZ056-057-069-201300-
SOUTHEAST ARKANSAS

CITY           SKY/WX    TMP DP  RH WIND       PRES   REMARKS
PINE BLUFF     FAIR      49  47  93 E3        30.20S
6HR MIN TEMP:  47; 6HR MAX TEMP:  53;

STUTTGART      FAIR      55  52  89 SE5       30.21R
6HR MIN TEMP:  54; 6HR MAX TEMP:  59;

MONTICELLO     FAIR      53  50  89 CALM      30.20S
6HR MIN TEMP:  50; 6HR MAX TEMP:  56;


$$





USA.gov is the U.S. government's official web portal to all federal, state and local government web resources and services.